Time,TemperatureF,DewpointF,PressureIn,WindDirection,WindDirectionDegrees,WindSpeedMPH,WindSpeedGustMPH,Humidity,HourlyPrecipIn,Conditions,Clouds,dailyrainin,SoftwareType,DateUTC
2013-10-08 00:04:00,58.3,43.6,30.08,ESE,112,5.0,12.0,58,0.00,,,0.00,Weather View 32 v70,2013-10-08 05:04:00,
2013-10-08 00:09:00,58.3,43.6,30.08,ESE,112,5.0,12.0,58,0.00,,,0.00,Weather View 32 v70,2013-10-08 05:09:00,
2013-10-08 00:14:00,58.2,43.5,30.08,ESE,112,7.0,12.0,58,0.00,,,0.00,Weather View 32 v70,2013-10-08 05:14:00,
2013-10-08 00:19:00,58.1,43.4,30.08,ESE,112,4.0,12.0,58,0.00,,,0.00,Weather View 32 v70,2013-10-08 05:19:00,
2013-10-08 00:24:00,58.1,43.4,30.08,ESE,112,7.0,12.0,58,0.00,,,0.00,Weather View 32 v70,2013-10-08 05:24:00,
2013-10-08 00:29:00,58.1,43.4,30.07,ESE,112,8.0,12.0,58,0.00,,,0.00,Weather View 32 v70,2013-10-08 05:29:00,
2013-10-08 00:34:00,58.1,43.4,30.07,SE,135,4.0,12.0,58,0.00,,,0.00,Weather View 32 v70,2013-10-08 05:34:00,
2013-10-08 00:39:00,57.8,42.6,30.07,ESE,112,7.0,12.0,57,0.00,,,0.00,Weather View 32 v70,2013-10-08 05:39:00,
2013-10-08 00:44:00,57.8,42.6,30.07,ESE,112,9.0,15.0,57,0.00,,,0.00,Weather View 32 v70,2013-10-08 05:44:00,
2013-10-08 00:49:00,57.6,42.4,30.07,ESE,112,7.0,15.0,57,0.00,,,0.00,Weather View 32 v70,2013-10-08 05:49:00,
2013-10-08 00:54:00,57.3,42.6,30.06,SE,135,4.0,15.0,58,0.00,,,0.00,Weather View 32 v70,2013-10-08 05:54:00,
2013-10-08 00:59:00,57.1,42.9,30.07,ESE,112,6.0,15.0,59,0.00,,,0.00,Weather View 32 v70,2013-10-08 05:59:00,
2013-10-08 01:04:00,57.1,42.4,30.07,ESE,112,3.0,15.0,58,0.00,,,0.00,Weather View 32 v70,2013-10-08 06:04:00,
2013-10-08 01:09:00,57.0,42.3,30.07,ESE,112,7.0,15.0,58,0.00,,,0.00,Weather View 32 v70,2013-10-08 06:09:00,
2013-10-08 01:14:00,57.1,42.4,30.07,SE,135,3.0,15.0,58,0.00,,,0.00,Weather View 32 v70,2013-10-08 06:14:00,
2013-10-08 01:19:00,57.2,42.5,30.07,SE,135,10.0,15.0,58,0.00,,,0.00,Weather View 32 v70,2013-10-08 06:19:00,
2013-10-08 01:24:00,56.9,42.2,30.06,SE,135,1.0,15.0,58,0.00,,,0.00,Weather View 32 v70,2013-10-08 06:24:00,
2013-10-08 01:29:00,56.9,42.2,30.06,SE,135,6.0,15.0,58,0.00,,,0.00,Weather View 32 v70,2013-10-08 06:29:00,
2013-10-08 01:34:00,56.9,42.2,30.06,SE,135,4.0,15.0,58,0.00,,,0.00,Weather View 32 v70,2013-10-08 06:34:00,
2013-10-08 01:39:00,56.7,42.1,30.06,SE,135,4.0,15.0,58,0.00,,,0.00,Weather View 32 v70,2013-10-08 06:39:00,
2013-10-08 01:44:00,56.5,42.3,30.07,ESE,112,6.0,14.0,59,0.00,,,0.00,Weather View 32 v70,2013-10-08 06:44:00,
2013-10-08 01:49:00,56.7,42.1,30.06,SE,135,6.0,14.0,58,0.00,,,0.00,Weather View 32 v70,2013-10-08 06:49:00,
2013-10-08 01:54:00,56.4,42.2,30.06,ESE,112,10.0,14.0,59,0.00,,,0.00,Weather View 32 v70,2013-10-08 06:54:00,
2013-10-08 01:59:00,56.3,42.1,30.06,SE,135,6.0,14.0,59,0.00,,,0.00,Weather View 32 v70,2013-10-08 06:59:00,
2013-10-08 02:04:00,56.1,42.4,30.06,SE,135,5.0,14.0,60,0.00,,,0.00,Weather View 32 v70,2013-10-08 07:04:00,
2013-10-08 02:09:00,55.9,42.2,30.06,SE,135,4.0,14.0,60,0.00,,,0.00,Weather View 32 v70,2013-10-08 07:09:00,
2013-10-08 02:14:00,55.7,42.0,30.06,SE,135,4.0,14.0,60,0.00,,,0.00,Weather View 32 v70,2013-10-08 07:14:00,
2013-10-08 02:19:00,55.7,42.0,30.06,SE,135,4.0,14.0,60,0.00,,,0.00,Weather View 32 v70,2013-10-08 07:19:00,
2013-10-08 02:25:00,55.5,42.2,30.06,East,90,2.0,14.0,61,0.00,,,0.00,Weather View 32 v70,2013-10-08 07:25:00,
2013-10-08 02:30:00,55.3,42.5,30.06,East,90,8.0,14.0,62,0.00,,,0.00,Weather View 32 v70,2013-10-08 07:30:00,
2013-10-08 02:35:00,55.3,42.1,30.06,SE,135,5.0,14.0,61,0.00,,,0.00,Weather View 32 v70,2013-10-08 07:35:00,
2013-10-08 02:40:00,55.3,42.1,30.06,East,90,6.0,12.0,61,0.00,,,0.00,Weather View 32 v70,2013-10-08 07:40:00,
2013-10-08 02:45:00,55.4,42.1,30.06,ESE,112,8.0,12.0,61,0.00,,,0.00,Weather View 32 v70,2013-10-08 07:45:00,
2013-10-08 02:50:00,55.5,42.2,30.06,SE,135,7.0,14.0,61,0.00,,,0.00,Weather View 32 v70,2013-10-08 07:50:00,
2013-10-08 02:55:00,55.6,41.9,30.06,East,90,6.0,14.0,60,0.00,,,0.00,Weather View 32 v70,2013-10-08 07:55:00,
2013-10-08 03:00:00,55.6,41.9,30.05,East,90,10.0,14.0,60,0.00,,,0.00,Weather View 32 v70,2013-10-08 08:00:00,
2013-10-08 03:05:00,55.4,42.1,30.05,ESE,112,6.0,14.0,61,0.00,,,0.00,Weather View 32 v70,2013-10-08 08:05:00,
2013-10-08 03:10:00,55.2,42.0,30.05,SE,135,9.0,14.0,61,0.00,,,0.00,Weather View 32 v70,2013-10-08 08:10:00,
2013-10-08 03:15:00,55.1,41.9,30.05,ESE,112,5.0,14.0,61,0.00,,,0.00,Weather View 32 v70,2013-10-08 08:15:00,
2013-10-08 03:20:00,55.1,41.9,30.05,SE,135,8.0,14.0,61,0.00,,,0.00,Weather View 32 v70,2013-10-08 08:20:00,
2013-10-08 03:25:00,54.9,42.1,30.05,ESE,112,9.0,14.0,62,0.00,,,0.00,Weather View 32 v70,2013-10-08 08:25:00,
2013-10-08 03:30:00,54.5,42.1,30.04,ESE,112,7.0,14.0,63,0.00,,,0.00,Weather View 32 v70,2013-10-08 08:30:00,
2013-10-08 03:35:00,54.2,42.3,30.04,ESE,112,5.0,14.0,64,0.00,,,0.00,Weather View 32 v70,2013-10-08 08:35:00,
2013-10-08 03:40:00,54.0,42.5,30.05,ESE,112,7.0,14.0,65,0.00,,,0.00,Weather View 32 v70,2013-10-08 08:40:00,
2013-10-08 03:45:00,53.9,42.4,30.04,SE,135,4.0,14.0,65,0.00,,,0.00,Weather View 32 v70,2013-10-08 08:45:00,
2013-10-08 03:50:00,53.9,42.4,30.04,ESE,112,8.0,14.0,65,0.00,,,0.00,Weather View 32 v70,2013-10-08 08:50:00,
2013-10-08 03:55:00,53.7,42.2,30.04,ESE,112,4.0,14.0,65,0.00,,,0.00,Weather View 32 v70,2013-10-08 08:55:00,
2013-10-08 04:00:00,53.7,42.2,30.04,ESE,112,11.0,14.0,65,0.00,,,0.00,Weather View 32 v70,2013-10-08 09:00:00,
2013-10-08 04:05:00,53.7,42.2,30.04,SE,135,10.0,14.0,65,0.00,,,0.00,Weather View 32 v70,2013-10-08 09:05:00,
2013-10-08 04:10:00,53.6,42.5,30.04,ESE,112,7.0,14.0,66,0.00,,,0.00,Weather View 32 v70,2013-10-08 09:10:00,
2013-10-08 04:15:00,53.5,42.4,30.04,ESE,112,9.0,14.0,66,0.00,,,0.00,Weather View 32 v70,2013-10-08 09:15:00,
2013-10-08 04:20:00,53.4,42.3,30.04,ESE,112,8.0,14.0,66,0.00,,,0.00,Weather View 32 v70,2013-10-08 09:20:00,
2013-10-08 04:25:00,53.4,42.3,30.04,SE,135,7.0,14.0,66,0.00,,,0.00,Weather View 32 v70,2013-10-08 09:25:00,
2013-10-08 04:30:00,53.4,42.3,30.04,ESE,112,9.0,14.0,66,0.00,,,0.00,Weather View 32 v70,2013-10-08 09:30:00,
2013-10-08 04:35:00,53.3,42.2,30.04,ESE,112,7.0,14.0,66,0.00,,,0.00,Weather View 32 v70,2013-10-08 09:35:00,
2013-10-08 04:40:00,53.3,42.2,30.04,ESE,112,7.0,14.0,66,0.00,,,0.00,Weather View 32 v70,2013-10-08 09:40:00,
2013-10-08 04:45:00,53.1,42.4,30.04,SE,135,4.0,14.0,67,0.00,,,0.00,Weather View 32 v70,2013-10-08 09:45:00,
2013-10-08 04:50:00,53.0,42.3,30.05,SE,135,7.0,14.0,67,0.00,,,0.00,Weather View 32 v70,2013-10-08 09:50:00,
2013-10-08 04:56:00,52.9,42.2,30.05,ESE,112,4.0,14.0,67,0.00,,,0.00,Weather View 32 v70,2013-10-08 09:56:00,
2013-10-08 05:01:00,52.7,42.4,30.05,ESE,112,4.0,14.0,68,0.00,,,0.00,Weather View 32 v70,2013-10-08 10:01:00,
2013-10-08 05:06:00,52.5,42.2,30.04,ESE,112,6.0,14.0,68,0.00,,,0.00,Weather View 32 v70,2013-10-08 10:06:00,
2013-10-08 05:11:00,52.5,42.2,30.04,ESE,112,7.0,14.0,68,0.00,,,0.00,Weather View 32 v70,2013-10-08 10:11:00,
2013-10-08 05:16:00,52.3,42.4,30.05,SE,135,5.0,14.0,69,0.00,,,0.00,Weather View 32 v70,2013-10-08 10:16:00,
2013-10-08 05:21:00,52.3,42.4,30.05,East,90,4.0,14.0,69,0.00,,,0.00,Weather View 32 v70,2013-10-08 10:21:00,
2013-10-08 05:26:00,52.1,42.2,30.05,SE,135,7.0,14.0,69,0.00,,,0.00,Weather View 32 v70,2013-10-08 10:26:00,
2013-10-08 05:31:00,51.9,42.0,30.05,SE,135,7.0,14.0,69,0.00,,,0.00,Weather View 32 v70,2013-10-08 10:31:00,
2013-10-08 05:36:00,51.8,41.9,30.05,ESE,112,6.0,13.0,69,0.00,,,0.00,Weather View 32 v70,2013-10-08 10:36:00,
2013-10-08 05:41:00,51.7,41.8,30.04,East,90,7.0,13.0,69,0.00,,,0.00,Weather View 32 v70,2013-10-08 10:41:00,
2013-10-08 05:46:00,51.5,42.0,30.04,ESE,112,6.0,13.0,70,0.00,,,0.00,Weather View 32 v70,2013-10-08 10:46:00,
2013-10-08 05:51:00,51.3,41.8,30.04,ESE,112,8.0,13.0,70,0.00,,,0.00,Weather View 32 v70,2013-10-08 10:51:00,
2013-10-08 05:56:00,51.1,42.0,30.04,ESE,112,7.0,13.0,71,0.00,,,0.00,Weather View 32 v70,2013-10-08 10:56:00,
2013-10-08 06:01:00,51.0,41.9,30.05,ESE,112,4.0,13.0,71,0.00,,,0.00,Weather View 32 v70,2013-10-08 11:01:00,
2013-10-08 06:06:00,51.0,41.9,30.04,SE,135,9.0,13.0,71,0.00,,,0.00,Weather View 32 v70,2013-10-08 11:06:00,
2013-10-08 06:11:00,51.1,42.0,30.04,ESE,112,10.0,11.0,71,0.00,,,0.00,Weather View 32 v70,2013-10-08 11:11:00,
2013-10-08 06:16:00,51.2,41.7,30.05,ESE,112,4.0,13.0,70,0.00,,,0.00,Weather View 32 v70,2013-10-08 11:16:00,
2013-10-08 06:21:00,51.3,41.8,30.04,ESE,112,4.0,13.0,70,0.00,,,0.00,Weather View 32 v70,2013-10-08 11:21:00,
2013-10-08 06:26:00,51.1,42.0,30.04,SE,135,7.0,13.0,71,0.00,,,0.00,Weather View 32 v70,2013-10-08 11:26:00,
2013-10-08 06:31:00,51.1,42.0,30.04,East,90,7.0,13.0,71,0.00,,,0.00,Weather View 32 v70,2013-10-08 11:31:00,
2013-10-08 06:36:00,51.1,42.0,30.04,SE,135,6.0,13.0,71,0.00,,,0.00,Weather View 32 v70,2013-10-08 11:36:00,
2013-10-08 06:41:00,50.9,41.8,30.04,SE,135,7.0,13.0,71,0.00,,,0.00,Weather View 32 v70,2013-10-08 11:41:00,
2013-10-08 06:46:00,50.9,41.8,30.04,SE,135,4.0,13.0,71,0.00,,,0.00,Weather View 32 v70,2013-10-08 11:46:00,
2013-10-08 06:51:00,50.8,41.7,30.04,ESE,112,10.0,13.0,71,0.00,,,0.00,Weather View 32 v70,2013-10-08 11:51:00,
2013-10-08 06:56:00,50.8,41.7,30.04,SSE,157,7.0,13.0,71,0.00,,,0.00,Weather View 32 v70,2013-10-08 11:56:00,
2013-10-08 07:01:00,50.8,41.7,30.04,SE,135,6.0,13.0,71,0.00,,,0.00,Weather View 32 v70,2013-10-08 12:01:00,
2013-10-08 07:09:00,50.9,41.8,30.04,SE,135,7.0,13.0,71,0.00,,,0.00,Weather View 32 v70,2013-10-08 12:09:00,
2013-10-08 07:14:00,50.9,41.8,30.04,SE,135,9.0,14.0,71,0.00,,,0.00,Weather View 32 v70,2013-10-08 12:14:00,
2013-10-08 07:19:00,50.6,41.9,30.04,SE,135,5.0,14.0,72,0.00,,,0.00,Weather View 32 v70,2013-10-08 12:19:00,
2013-10-08 07:24:00,50.3,42.0,30.05,East,90,4.0,14.0,73,0.00,,,0.00,Weather View 32 v70,2013-10-08 12:24:00,
2013-10-08 07:29:00,50.1,41.8,30.04,ESE,112,6.0,14.0,73,0.00,,,0.00,Weather View 32 v70,2013-10-08 12:29:00,
2013-10-08 07:34:00,49.9,41.9,30.05,ESE,112,7.0,14.0,74,0.00,,,0.00,Weather View 32 v70,2013-10-08 12:34:00,
2013-10-08 07:39:00,49.7,42.1,30.04,SE,135,5.0,14.0,75,0.00,,,0.00,Weather View 32 v70,2013-10-08 12:39:00,
2013-10-08 07:44:00,49.6,42.0,30.04,ESE,112,5.0,14.0,75,0.00,,,0.00,Weather View 32 v70,2013-10-08 12:44:00,
2013-10-08 07:49:00,49.7,42.1,30.04,SE,135,5.0,14.0,75,0.00,,,0.00,Weather View 32 v70,2013-10-08 12:49:00,
2013-10-08 07:54:00,49.8,41.8,30.04,ESE,112,4.0,14.0,74,0.00,,,0.00,Weather View 32 v70,2013-10-08 12:54:00,
2013-10-08 07:59:00,49.9,41.9,30.04,SE,135,5.0,14.0,74,0.00,,,0.00,Weather View 32 v70,2013-10-08 12:59:00,
2013-10-08 08:04:00,50.1,42.1,30.04,SE,135,6.0,14.0,74,0.00,,,0.00,Weather View 32 v70,2013-10-08 13:04:00,
2013-10-08 08:09:00,50.3,42.0,30.04,ESE,112,6.0,14.0,73,0.00,,,0.00,Weather View 32 v70,2013-10-08 13:09:00,
2013-10-08 08:14:00,50.5,42.2,30.04,ESE,112,6.0,11.0,73,0.00,,,0.00,Weather View 32 v70,2013-10-08 13:14:00,
2013-10-08 08:19:00,50.6,42.2,30.04,SE,135,5.0,11.0,73,0.00,,,0.00,Weather View 32 v70,2013-10-08 13:19:00,
2013-10-08 08:24:00,50.8,42.4,30.04,SE,135,5.0,11.0,73,0.00,,,0.00,Weather View 32 v70,2013-10-08 13:24:00,
2013-10-08 08:29:00,50.9,42.2,30.04,ESE,112,6.0,11.0,72,0.00,,,0.00,Weather View 32 v70,2013-10-08 13:29:00,
2013-10-08 08:34:00,51.3,42.2,30.04,East,90,6.0,11.0,71,0.00,,,0.00,Weather View 32 v70,2013-10-08 13:34:00,
2013-10-08 08:39:00,51.5,42.4,30.05,ESE,112,3.0,11.0,71,0.00,,,0.00,Weather View 32 v70,2013-10-08 13:39:00,
2013-10-08 08:44:00,51.9,42.4,30.04,SE,135,5.0,11.0,70,0.00,,,0.00,Weather View 32 v70,2013-10-08 13:44:00,
2013-10-08 08:49:00,52.5,43.0,30.04,ESE,112,6.0,12.0,70,0.00,,,0.00,Weather View 32 v70,2013-10-08 13:49:00,
2013-10-08 08:54:00,53.1,42.8,30.04,ESE,112,5.0,12.0,68,0.00,,,0.00,Weather View 32 v70,2013-10-08 13:54:00,
2013-10-08 08:59:00,53.7,43.0,30.04,SE,135,11.0,12.0,67,0.00,,,0.00,Weather View 32 v70,2013-10-08 13:59:00,
2013-10-08 09:04:00,54.3,43.2,30.04,SE,135,5.0,12.0,66,0.00,,,0.00,Weather View 32 v70,2013-10-08 14:04:00,
2013-10-08 09:09:00,54.8,42.8,30.05,SE,135,4.0,16.0,64,0.00,,,0.00,Weather View 32 v70,2013-10-08 14:09:00,
2013-10-08 09:14:00,55.4,43.4,30.05,SE,135,2.0,16.0,64,0.00,,,0.00,Weather View 32 v70,2013-10-08 14:14:00,
2013-10-08 09:19:00,55.9,43.5,30.05,SE,135,2.0,16.0,63,0.00,,,0.00,Weather View 32 v70,2013-10-08 14:19:00,
2013-10-08 09:24:00,56.3,43.4,30.05,SE,135,2.0,16.0,62,0.00,,,0.00,Weather View 32 v70,2013-10-08 14:24:00,
2013-10-08 09:29:00,56.6,43.7,30.05,ESE,112,9.0,16.0,62,0.00,,,0.00,Weather View 32 v70,2013-10-08 14:29:00,
2013-10-08 09:34:00,56.9,43.6,30.06,SE,135,4.0,16.0,61,0.00,,,0.00,Weather View 32 v70,2013-10-08 14:34:00,
2013-10-08 09:39:00,57.3,43.5,30.06,South,180,4.0,16.0,60,0.00,,,0.00,Weather View 32 v70,2013-10-08 14:39:00,
2013-10-08 09:44:00,57.8,44.4,30.05,East,90,6.0,16.0,61,0.00,,,0.00,Weather View 32 v70,2013-10-08 14:44:00,
2013-10-08 09:49:00,58.1,44.7,30.05,ESE,112,7.0,16.0,61,0.00,,,0.00,Weather View 32 v70,2013-10-08 14:49:00,
2013-10-08 09:54:00,58.9,45.0,30.05,East,90,8.0,16.0,60,0.00,,,0.00,Weather View 32 v70,2013-10-08 14:54:00,
2013-10-08 09:59:00,59.7,43.9,30.05,SE,135,8.0,16.0,56,0.00,,,0.00,Weather View 32 v70,2013-10-08 14:59:00,
2013-10-08 10:04:00,60.3,43.5,30.05,SSE,157,1.0,16.0,54,0.00,,,0.00,Weather View 32 v70,2013-10-08 15:04:00,
2013-10-08 10:09:00,61.1,43.8,30.05,SE,135,5.0,16.0,53,0.00,,,0.00,Weather View 32 v70,2013-10-08 15:09:00,
2013-10-08 10:14:00,61.8,43.9,30.05,ENE,67,1.0,16.0,52,0.00,,,0.00,Weather View 32 v70,2013-10-08 15:14:00,
2013-10-08 10:19:00,62.4,44.0,30.05,SE,135,3.0,16.0,51,0.00,,,0.00,Weather View 32 v70,2013-10-08 15:19:00,
2013-10-08 10:24:00,62.9,44.5,30.05,SSE,157,5.0,16.0,51,0.00,,,0.00,Weather View 32 v70,2013-10-08 15:24:00,
2013-10-08 10:29:00,63.7,44.7,30.05,ESE,112,4.0,16.0,50,0.00,,,0.00,Weather View 32 v70,2013-10-08 15:29:00,
2013-10-08 10:34:00,64.3,44.7,30.05,ESE,112,3.0,16.0,49,0.00,,,0.00,Weather View 32 v70,2013-10-08 15:34:00,
2013-10-08 10:39:00,64.6,44.4,30.05,WSW,247,1.0,16.0,48,0.00,,,0.00,Weather View 32 v70,2013-10-08 15:39:00,
2013-10-08 10:44:00,64.3,44.1,30.05,ESE,112,1.0,16.0,48,0.00,,,0.00,Weather View 32 v70,2013-10-08 15:44:00,
2013-10-08 10:49:00,64.8,44.0,30.05,SE,135,4.0,16.0,47,0.00,,,0.00,Weather View 32 v70,2013-10-08 15:49:00,
2013-10-08 10:54:00,65.6,44.2,30.04,South,180,0.0,16.0,46,0.00,,,0.00,Weather View 32 v70,2013-10-08 15:54:00,
2013-10-08 10:59:00,66.3,44.3,30.04,SE,135,11.0,16.0,45,0.00,,,0.00,Weather View 32 v70,2013-10-08 15:59:00,
2013-10-08 11:04:00,66.8,44.1,30.04,SE,135,10.0,21.0,44,0.00,,,0.00,Weather View 32 v70,2013-10-08 16:04:00,
2013-10-08 11:09:00,66.8,44.1,30.04,SE,135,2.0,21.0,44,0.00,,,0.00,Weather View 32 v70,2013-10-08 16:09:00,
2013-10-08 11:14:00,66.9,43.6,30.03,SE,135,4.0,21.0,43,0.00,,,0.00,Weather View 32 v70,2013-10-08 16:14:00,
2013-10-08 11:19:00,67.0,43.7,30.03,SE,135,7.0,21.0,43,0.00,,,0.00,Weather View 32 v70,2013-10-08 16:19:00,
2013-10-08 11:24:00,67.5,44.2,30.03,SSE,157,9.0,21.0,43,0.00,,,0.00,Weather View 32 v70,2013-10-08 16:24:00,
2013-10-08 11:29:00,68.1,44.1,30.03,SW,225,1.0,21.0,42,0.00,,,0.00,Weather View 32 v70,2013-10-08 16:29:00,
2013-10-08 11:35:00,68.6,44.5,30.03,ESE,112,5.0,21.0,42,0.00,,,0.00,Weather View 32 v70,2013-10-08 16:35:00,
2013-10-08 11:40:00,68.9,43.5,30.03,SW,225,6.0,21.0,40,0.00,,,0.00,Weather View 32 v70,2013-10-08 16:40:00,
2013-10-08 11:45:00,69.4,44.6,30.03,ESE,112,8.0,21.0,41,0.00,,,0.00,Weather View 32 v70,2013-10-08 16:45:00,
2013-10-08 11:50:00,69.7,44.2,30.03,SE,135,7.0,21.0,40,0.00,,,0.00,Weather View 32 v70,2013-10-08 16:50:00,
2013-10-08 11:55:00,69.9,44.4,30.02,South,180,9.0,21.0,40,0.00,,,0.00,Weather View 32 v70,2013-10-08 16:55:00,
2013-10-08 12:00:00,70.1,44.6,30.02,SSW,202,3.0,21.0,40,0.00,,,0.00,Weather View 32 v70,2013-10-08 17:00:00,
2013-10-08 12:05:00,70.4,44.2,30.02,SE,135,6.0,18.0,39,0.00,,,0.00,Weather View 32 v70,2013-10-08 17:05:00,
2013-10-08 12:10:00,70.5,45.6,30.03,ESE,112,2.0,18.0,41,0.00,,,0.00,Weather View 32 v70,2013-10-08 17:10:00,
2013-10-08 12:15:00,70.6,43.7,30.02,ESE,112,12.0,21.0,38,0.00,,,0.00,Weather View 32 v70,2013-10-08 17:15:00,
2013-10-08 12:20:00,70.9,44.6,30.02,SE,135,7.0,21.0,39,0.00,,,0.00,Weather View 32 v70,2013-10-08 17:20:00,
2013-10-08 12:25:00,71.2,44.2,30.02,SE,135,14.0,21.0,38,0.00,,,0.00,Weather View 32 v70,2013-10-08 17:25:00,
2013-10-08 12:30:00,71.6,44.6,30.02,ESE,112,6.0,21.0,38,0.00,,,0.00,Weather View 32 v70,2013-10-08 17:30:00,
2013-10-08 12:35:00,71.9,44.1,30.02,SE,135,5.0,21.0,37,0.00,,,0.00,Weather View 32 v70,2013-10-08 17:35:00,
2013-10-08 12:40:00,72.8,44.9,30.02,ESE,112,6.0,21.0,37,0.00,,,0.00,Weather View 32 v70,2013-10-08 17:40:00,
2013-10-08 12:45:00,72.9,44.3,30.02,SE,135,8.0,26.0,36,0.00,,,0.00,Weather View 32 v70,2013-10-08 17:45:00,
2013-10-08 12:50:00,73.0,44.4,30.02,ESE,112,10.0,26.0,36,0.00,,,0.00,Weather View 32 v70,2013-10-08 17:50:00,
2013-10-08 12:55:00,73.3,43.9,30.02,East,90,9.0,26.0,35,0.00,,,0.00,Weather View 32 v70,2013-10-08 17:55:00,
2013-10-08 13:00:00,73.5,44.1,30.02,SE,135,10.0,26.0,35,0.00,,,0.00,Weather View 32 v70,2013-10-08 18:00:00,
2013-10-08 13:05:00,73.9,44.4,30.01,East,90,2.0,26.0,35,0.00,,,0.00,Weather View 32 v70,2013-10-08 18:05:00,
2013-10-08 13:10:00,74.2,43.2,30.01,ESE,112,8.0,26.0,33,0.00,,,0.00,Weather View 32 v70,2013-10-08 18:10:00,
2013-10-08 13:15:00,74.7,45.2,30.01,SW,225,7.0,26.0,35,0.00,,,0.00,Weather View 32 v70,2013-10-08 18:15:00,
2013-10-08 13:20:00,74.8,43.7,30.01,WSW,247,1.0,26.0,33,0.00,,,0.00,Weather View 32 v70,2013-10-08 18:20:00,
2013-10-08 13:25:00,75.3,44.1,30.00,South,180,7.0,26.0,33,0.00,,,0.00,Weather View 32 v70,2013-10-08 18:25:00,
2013-10-08 13:30:00,75.3,44.1,30.00,SE,135,4.0,26.0,33,0.00,,,0.00,Weather View 32 v70,2013-10-08 18:30:00,
2013-10-08 13:35:00,75.2,44.0,30.00,SSE,157,9.0,26.0,33,0.00,,,0.00,Weather View 32 v70,2013-10-08 18:35:00,
2013-10-08 13:40:00,75.2,43.2,30.00,SE,135,7.0,26.0,32,0.00,,,0.00,Weather View 32 v70,2013-10-08 18:40:00,
2013-10-08 13:45:00,75.6,44.4,30.00,SE,135,6.0,22.0,33,0.00,,,0.00,Weather View 32 v70,2013-10-08 18:45:00,
2013-10-08 13:50:00,75.9,44.6,30.00,ESE,112,12.0,22.0,33,0.00,,,0.00,Weather View 32 v70,2013-10-08 18:50:00,
2013-10-08 13:55:00,75.7,43.7,30.00,SW,225,2.0,22.0,32,0.00,,,0.00,Weather View 32 v70,2013-10-08 18:55:00,
2013-10-08 14:00:00,75.8,44.6,30.00,South,180,8.0,22.0,33,0.00,,,0.00,Weather View 32 v70,2013-10-08 19:00:00,
2013-10-08 14:05:00,75.9,44.6,29.99,South,180,17.0,22.0,33,0.00,,,0.00,Weather View 32 v70,2013-10-08 19:05:00,
2013-10-08 14:10:00,76.2,44.1,29.99,South,180,5.0,22.0,32,0.00,,,0.00,Weather View 32 v70,2013-10-08 19:10:00,
2013-10-08 14:15:00,76.4,43.4,29.99,East,90,3.0,22.0,31,0.00,,,0.00,Weather View 32 v70,2013-10-08 19:15:00,
2013-10-08 14:20:00,76.5,43.5,29.99,SE,135,8.0,22.0,31,0.00,,,0.00,Weather View 32 v70,2013-10-08 19:20:00,
2013-10-08 14:25:00,76.7,43.7,29.98,South,180,4.0,22.0,31,0.00,,,0.00,Weather View 32 v70,2013-10-08 19:25:00,
2013-10-08 14:30:00,77.0,44.8,29.99,SE,135,8.0,22.0,32,0.00,,,0.00,Weather View 32 v70,2013-10-08 19:30:00,
2013-10-08 14:35:00,77.2,45.0,29.99,SE,135,2.0,22.0,32,0.00,,,0.00,Weather View 32 v70,2013-10-08 19:35:00,
2013-10-08 14:40:00,76.9,43.0,29.99,SE,135,6.0,22.0,30,0.00,,,0.00,Weather View 32 v70,2013-10-08 19:40:00,
2013-10-08 14:45:00,76.9,43.0,29.99,SE,135,5.0,22.0,30,0.00,,,0.00,Weather View 32 v70,2013-10-08 19:45:00,
2013-10-08 14:50:00,77.3,45.1,29.98,SSE,157,2.0,22.0,32,0.00,,,0.00,Weather View 32 v70,2013-10-08 19:50:00,
2013-10-08 14:55:00,77.7,45.4,29.99,East,90,1.0,22.0,32,0.00,,,0.00,Weather View 32 v70,2013-10-08 19:55:00,
2013-10-08 15:00:00,77.2,44.1,29.99,SW,225,4.0,22.0,31,0.00,,,0.00,Weather View 32 v70,2013-10-08 20:00:00,
2013-10-08 15:05:00,76.9,43.9,29.98,South,180,4.0,22.0,31,0.00,,,0.00,Weather View 32 v70,2013-10-08 20:05:00,
2013-10-08 15:10:00,77.3,45.1,29.98,East,90,6.0,22.0,32,0.00,,,0.00,Weather View 32 v70,2013-10-08 20:10:00,
2013-10-08 15:15:00,77.6,45.3,29.98,ESE,112,7.0,22.0,32,0.00,,,0.00,Weather View 32 v70,2013-10-08 20:15:00,
2013-10-08 15:20:00,76.9,44.7,29.98,ESE,112,9.0,22.0,32,0.00,,,0.00,Weather View 32 v70,2013-10-08 20:20:00,
2013-10-08 15:25:00,76.6,44.4,29.98,South,180,8.0,22.0,32,0.00,,,0.00,Weather View 32 v70,2013-10-08 20:25:00,
2013-10-08 15:30:00,76.5,44.4,29.98,ESE,112,4.0,22.0,32,0.00,,,0.00,Weather View 32 v70,2013-10-08 20:30:00,
2013-10-08 15:35:00,77.0,46.4,29.98,East,90,2.0,22.0,34,0.00,,,0.00,Weather View 32 v70,2013-10-08 20:35:00,
2013-10-08 15:40:00,77.5,46.0,29.98,SE,135,5.0,22.0,33,0.00,,,0.00,Weather View 32 v70,2013-10-08 20:40:00,
2013-10-08 15:45:00,77.5,46.0,29.98,SE,135,10.0,22.0,33,0.00,,,0.00,Weather View 32 v70,2013-10-08 20:45:00,
2013-10-08 15:50:00,77.6,45.3,29.98,South,180,1.0,22.0,32,0.00,,,0.00,Weather View 32 v70,2013-10-08 20:50:00,
2013-10-08 15:55:00,77.8,46.3,29.98,SE,135,6.0,22.0,33,0.00,,,0.00,Weather View 32 v70,2013-10-08 20:55:00,
2013-10-08 16:00:00,77.1,44.9,29.98,East,90,11.0,22.0,32,0.00,,,0.00,Weather View 32 v70,2013-10-08 21:00:00,
2013-10-08 16:05:00,77.1,45.7,29.98,SE,135,12.0,22.0,33,0.00,,,0.00,Weather View 32 v70,2013-10-08 21:05:00,
2013-10-08 16:10:00,77.1,45.7,29.98,South,180,2.0,21.0,33,0.00,,,0.00,Weather View 32 v70,2013-10-08 21:10:00,
2013-10-08 16:15:00,77.0,45.6,29.98,ESE,112,4.0,21.0,33,0.00,,,0.00,Weather View 32 v70,2013-10-08 21:15:00,
2013-10-08 16:20:00,76.8,45.4,29.98,SE,135,3.0,21.0,33,0.00,,,0.00,Weather View 32 v70,2013-10-08 21:20:00,
2013-10-08 16:25:00,76.5,45.2,29.98,SE,135,6.0,21.0,33,0.00,,,0.00,Weather View 32 v70,2013-10-08 21:25:00,
2013-10-08 16:30:00,76.3,45.8,29.98,ESE,112,5.0,21.0,34,0.00,,,0.00,Weather View 32 v70,2013-10-08 21:30:00,
2013-10-08 16:35:00,76.1,45.6,29.98,South,180,4.0,21.0,34,0.00,,,0.00,Weather View 32 v70,2013-10-08 21:35:00,
2013-10-08 16:40:00,75.8,44.6,29.98,ESE,112,7.0,21.0,33,0.00,,,0.00,Weather View 32 v70,2013-10-08 21:40:00,
2013-10-08 16:45:00,75.5,45.1,29.98,SE,135,8.0,21.0,34,0.00,,,0.00,Weather View 32 v70,2013-10-08 21:45:00,
2013-10-08 16:50:00,75.5,45.1,29.98,South,180,9.0,21.0,34,0.00,,,0.00,Weather View 32 v70,2013-10-08 21:50:00,
2013-10-08 16:55:00,75.5,45.1,29.98,South,180,6.0,21.0,34,0.00,,,0.00,Weather View 32 v70,2013-10-08 21:55:00,
2013-10-08 17:00:00,75.5,45.1,29.98,SE,135,6.0,24.0,34,0.00,,,0.00,Weather View 32 v70,2013-10-08 22:00:00,
2013-10-08 17:05:00,75.4,45.0,29.97,SE,135,7.0,24.0,34,0.00,,,0.00,Weather View 32 v70,2013-10-08 22:05:00,
2013-10-08 17:10:00,75.3,44.9,29.97,SSW,202,9.0,24.0,34,0.00,,,0.00,Weather View 32 v70,2013-10-08 22:10:00,
2013-10-08 17:15:00,75.2,44.8,29.97,SE,135,9.0,24.0,34,0.00,,,0.00,Weather View 32 v70,2013-10-08 22:15:00,
2013-10-08 17:20:00,74.9,45.3,29.97,ESE,112,12.0,24.0,35,0.00,,,0.00,Weather View 32 v70,2013-10-08 22:20:00,
2013-10-08 17:25:00,74.7,45.9,29.97,SE,135,6.0,24.0,36,0.00,,,0.00,Weather View 32 v70,2013-10-08 22:25:00,
2013-10-08 17:30:00,74.5,45.7,29.97,SE,135,11.0,24.0,36,0.00,,,0.00,Weather View 32 v70,2013-10-08 22:30:00,
2013-10-08 17:35:00,74.3,46.3,29.97,ESE,112,7.0,24.0,37,0.00,,,0.00,Weather View 32 v70,2013-10-08 22:35:00,
2013-10-08 17:40:00,74.2,46.2,29.97,SE,135,13.0,24.0,37,0.00,,,0.00,Weather View 32 v70,2013-10-08 22:40:00,
2013-10-08 17:45:00,74.3,46.3,29.97,ESE,112,7.0,24.0,37,0.00,,,0.00,Weather View 32 v70,2013-10-08 22:45:00,
2013-10-08 17:50:00,74.3,46.3,29.97,SE,135,7.0,24.0,37,0.00,,,0.00,Weather View 32 v70,2013-10-08 22:50:00,
2013-10-08 17:55:00,74.2,46.2,29.97,SE,135,6.0,24.0,37,0.00,,,0.00,Weather View 32 v70,2013-10-08 22:55:00,
2013-10-08 18:00:00,74.1,46.1,29.98,SE,135,8.0,21.0,37,0.00,,,0.00,Weather View 32 v70,2013-10-08 23:00:00,
2013-10-08 18:05:00,73.9,45.9,29.98,SE,135,4.0,19.0,37,0.00,,,0.00,Weather View 32 v70,2013-10-08 23:05:00,
2013-10-08 18:10:00,73.9,45.9,29.98,East,90,8.0,19.0,37,0.00,,,0.00,Weather View 32 v70,2013-10-08 23:10:00,
2013-10-08 18:15:00,73.7,45.7,29.98,SE,135,7.0,19.0,37,0.00,,,0.00,Weather View 32 v70,2013-10-08 23:15:00,
2013-10-08 18:20:00,73.5,45.6,29.98,SE,135,2.0,19.0,37,0.00,,,0.00,Weather View 32 v70,2013-10-08 23:20:00,
2013-10-08 18:25:00,73.3,46.1,29.97,ESE,112,6.0,19.0,38,0.00,,,0.00,Weather View 32 v70,2013-10-08 23:25:00,
2013-10-08 18:31:00,72.9,45.7,29.97,ESE,112,9.0,19.0,38,0.00,,,0.00,Weather View 32 v70,2013-10-08 23:31:00,
2013-10-08 18:36:00,72.8,46.3,29.98,SE,135,9.0,19.0,39,0.00,,,0.00,Weather View 32 v70,2013-10-08 23:36:00,
2013-10-08 18:41:00,72.5,46.1,29.98,ESE,112,11.0,19.0,39,0.00,,,0.00,Weather View 32 v70,2013-10-08 23:41:00,
2013-10-08 18:46:00,72.5,46.1,29.97,ESE,112,8.0,19.0,39,0.00,,,0.00,Weather View 32 v70,2013-10-08 23:46:00,
2013-10-08 18:51:00,72.3,45.9,29.98,East,90,14.0,16.0,39,0.00,,,0.00,Weather View 32 v70,2013-10-08 23:51:00,
2013-10-08 18:56:00,72.1,45.7,29.97,East,90,11.0,16.0,39,0.00,,,0.00,Weather View 32 v70,2013-10-08 23:56:00,
2013-10-08 19:01:00,71.9,46.2,29.98,SE,135,6.0,17.0,40,0.00,,,0.00,Weather View 32 v70,2013-10-09 00:01:00,
2013-10-08 19:06:00,71.7,46.0,29.98,SE,135,7.0,17.0,40,0.00,,,0.00,Weather View 32 v70,2013-10-09 00:06:00,
2013-10-08 19:11:00,71.5,46.5,29.98,ESE,112,9.0,17.0,41,0.00,,,0.00,Weather View 32 v70,2013-10-09 00:11:00,
2013-10-08 19:16:00,71.4,46.4,29.98,SE,135,7.0,17.0,41,0.00,,,0.00,Weather View 32 v70,2013-10-09 00:16:00,
2013-10-08 19:21:00,71.1,46.1,29.98,SE,135,5.0,17.0,41,0.00,,,0.00,Weather View 32 v70,2013-10-09 00:21:00,
2013-10-08 19:26:00,70.9,46.6,29.98,SE,135,11.0,17.0,42,0.00,,,0.00,Weather View 32 v70,2013-10-09 00:26:00,
2013-10-08 19:31:00,70.8,46.5,29.98,ESE,112,9.0,17.0,42,0.00,,,0.00,Weather View 32 v70,2013-10-09 00:31:00,
2013-10-08 19:36:00,70.8,46.5,29.99,SE,135,10.0,17.0,42,0.00,,,0.00,Weather View 32 v70,2013-10-09 00:36:00,
2013-10-08 19:41:00,70.9,46.0,29.99,SE,135,8.0,18.0,41,0.00,,,0.00,Weather View 32 v70,2013-10-09 00:41:00,
2013-10-08 19:46:00,70.6,45.7,29.99,SE,135,7.0,19.0,41,0.00,,,0.00,Weather View 32 v70,2013-10-09 00:46:00,
2013-10-08 19:51:00,70.3,46.1,30.00,SE,135,14.0,19.0,42,0.00,,,0.00,Weather View 32 v70,2013-10-09 00:51:00,
2013-10-08 19:56:00,70.2,46.0,30.00,SE,135,11.0,19.0,42,0.00,,,0.00,Weather View 32 v70,2013-10-09 00:56:00,
2013-10-08 20:01:00,70.1,45.9,30.00,ESE,112,5.0,19.0,42,0.00,,,0.00,Weather View 32 v70,2013-10-09 01:01:00,
2013-10-08 20:06:00,69.9,45.7,30.00,SSW,202,2.0,19.0,42,0.00,,,0.00,Weather View 32 v70,2013-10-09 01:06:00,
2013-10-08 20:11:00,69.7,45.5,30.00,ESE,112,9.0,19.0,42,0.00,,,0.00,Weather View 32 v70,2013-10-09 01:11:00,
2013-10-08 20:16:00,69.6,45.4,30.00,SE,135,4.0,19.0,42,0.00,,,0.00,Weather View 32 v70,2013-10-09 01:16:00,
2013-10-08 20:21:00,69.5,45.3,30.00,SE,135,9.0,19.0,42,0.00,,,0.00,Weather View 32 v70,2013-10-09 01:21:00,